Regional Weather Roundup
Issued by NWS

Home | Current Version | Previous Version | Graphics & Text | Print | Product List | Glossary On
Versions: 1 2 3 4 5 6 7 8 9 10 11 12 13 14 15 16 17 18 19 20 21 22 23 24 25 26 27
000
ASUS45 KSLC 221910
RWRUT

UTAH REGIONAL WEATHER ROUNDUP
NATIONAL WEATHER SERVICE SALT LAKE CITY UT
100 PM MDT SUN APR 22 2018

UTZ001>011-023>025-222000-

NORTHERN UTAH

CITY           SKY/WX    TMP DP  RH WIND       PRES   REMARKS
BRIGHAM CITY   SUNNY     67  31  25 S3        30.09F
HILL AFB       SUNNY     67  31  26 W3        30.09F
LOGAN          SUNNY     73  38  27 VRB3      30.08F
OGDEN          SUNNY     68  30  24 VRB5      30.08F
SALT LAKE CITY MOSUNNY   73  29  19 VRB3      30.06F
TOOELE VALLEY  SUNNY     72  41  33 N8        30.07F
WENDOVER       SUNNY     67  27  22 E9        30.07F
HEBER CITY       N/A     66  27  22 W3        30.10F
WEST JORDAN    SUNNY     69  34  27 SW5       30.09F

$$

UTZ011>015-024>027-222000-

CENTRAL/NORTHEAST UTAH

CITY           SKY/WX    TMP DP  RH WIND       PRES   REMARKS
PROVO AIRPORT  MOSUNNY   63  34  33 W6        30.11F
MOAB/CANYONLAN SUNNY     70  32  24 VRB3      30.08F
DELTA          SUNNY     68  30  24 CALM      30.09F
PRICE          SUNNY     66  23  19 SE10      30.14F
RICHFIELD      SUNNY     68  28  22 S2        30.10F
ROOSEVELT      SUNNY     68  30  24 E5        30.15F
VERNAL         SUNNY     65  32  29 S8        30.14F

$$

UTZ013>016-019>022-027-222000-

SOUTHERN UTAH

CITY           SKY/WX    TMP DP  RH WIND       PRES   REMARKS
BRYCE CANYON   MOSUNNY   61  22  22 SE12G21   30.21F
CEDAR CITY     MOSUNNY   68  28  22 NW7       30.11F
MILFORD        SUNNY     69  32  25 VRB3      30.10F
ST GEORGE      CLEAR     75  29  18 CALM      30.01F
HANKSVILLE     SUNNY     72  30  21 CALM      30.12F
KANAB          MOSUNNY   75  18  11 SW9G15    30.13F
BLANDING         N/A     68  26  20 SW10G20   30.20F

$$

REGIONAL REPORTS     COLORADO/ARIZONA

CITY           SKY/WX    TMP DP  RH WIND       PRES   REMARKS
CRAIG, CO      SUNNY     60  31  33 VRB3      30.18F
GRAND JUNCTION SUNNY     68  33  27 S10       30.12F
RIFLE, CO      SUNNY     60  36  40 S3        30.16F
MONTROSE, CO   SUNNY     63  29  27 NE5       30.17F
CORTEZ, CO     MOSUNNY   65  19  17 SW17      30.14F
COLORADO CITY    N/A     73  23  15 E5        30.12F
PAGE, AZ       MOSUNNY   71  29  21 E7        30.09F
GRAND CANYON   SUNNY     68  18  14 MISG      30.17F
KINGMAN, AZ    MOSUNNY   80  24  12 S10       30.01F
FLAGSTAFF, AZ  MOSUNNY   65  18  16 NE16      30.19F

$$

REGIONAL REPORTS    NEVADA/IDAHO/WYOMING

CITY           SKY/WX    TMP DP  RH WIND       PRES   REMARKS
LAS VEGAS, NV  PTSUNNY   81  25  12 S3        29.96F
ELY, NY        MOSUNNY   68  20  16 CALM      30.11F
ELKO, NV       SUNNY     69  36  29 VRB3      30.06F
POCATELLO, ID  MOSUNNY   66  37  34 NW8       30.07F
BURLEY, ID     SUNNY     62  34  35 N7        30.06F
FORT BRIDGER,  CLEAR     63  23  22 N6        30.20F
EVANSTON, WY   SUNNY     61  22  22 VRB5      30.18F
ROCK SPRINGS,  SUNNY     61  12  14 VRB5      30.17F
KEMMERER, WY   SUNNY     59  23  25 CALM      30.19F

$$




USA.gov is the U.S. government's official web portal to all federal, state and local government web resources and services.